TURKSAT 6A

Last updated on Tue Jul 08 2025 00:02:49 GMT+0000 (Coordinated Universal Time)

1 60233U 24127A 25188.57184182 .00000163 00000+0 00000+0 0 9998 2 60233 0.0158 210.2876 0002532 308.9104 14.4462 1.00271452 3560
UTC large
Height (km)
Speed (km/s)
/
Latitude / Longitude
Inclination (degrees)
Orbital Period (minutes)
Azimuth
Elevation
Range (km)
Doppler Factor

Next 0 passes for location: London (51.5072 / 0.1276)

Sorry there are no passes over London.